Flag for U.S.A. Weather past 2 weeks in San Buenaventura, California, U.S.A.

Now
65 °F

Clear.


Feels Like: 65 °F
Forecast: 61 / 78 °F
Wind: No wind

Location: Oxnard Airport

Current Time: Aug 28, 2014 at 6:44:15 AM

Latest Report: Aug 28, 2014 at 5:51 AM


Visibility: 8 mi

Pressure: 29.98 "Hg

Humidity: 73%

Dew point: 56 °F

Location of San BuenaventuraLocation

Historic Weather in San Buenaventura — Graph

°F

San Buenaventura temperature yesterday

Maximum temperature yesterday: 81 °F (at 1:51 PM)
Minimum temperature yesterday: 61 °F (at 4:51 AM)
Average temperature yesterday: 70 °F

Past Weeks' High & Low Weather Summary

 TemperatureHumidityPressure
High81 °F (Aug 27, 1:51 PM)93% (Aug 15, 3:51 AM)30.04 "Hg (Aug 15, 3:51 AM)
Low57 °F (Aug 26, 4:51 AM)36% (Aug 27, 9:51 AM)29.79 "Hg (Aug 18, 6:51 PM)
Average67 °F78%29.93 "Hg
* Reported Aug 13 5:51 AM — Aug 28 5:51 AM, San Buenaventura, Weather by CustomWeather, © 2014

Note: Actual official high and low records may vary slightly from our data, if they occured in-between our weather recording intervals... More about our weather records

Advertising

San Buenaventura weather history for previous 24 hours

 ConditionsComfort  
Time TempWeatherWind HumidityBarometerVisibility
5:51 AM
Aug 28
65 °FClear.No wind73%29.98 "Hg8 mi
4:51 AM65 °FClear.No wind68%29.98 "Hg10 mi
3:51 AM64 °FClear.No wind84%29.98 "Hg6 mi
2:51 AM65 °FClear.3 mph76%30.00 "Hg10 mi
1:51 AM66 °FClear.No wind87%30.00 "Hg7 mi
12:51 AM67 °FClear.3 mph85%30.01 "Hg8 mi
11:51 PM
Aug 27
66 °FClear.No wind87%30.01 "Hg8 mi
10:51 PM67 °FClear.3 mph85%30.02 "Hg9 mi
9:51 PM68 °FClear.6 mph82%30.02 "Hg9 mi
8:51 PM70 °FClear.5 mph79%30.00 "Hg10 mi
7:51 PM70 °FSunny.8 mph76%29.99 "Hg10 mi
6:51 PM73 °FSunny.12 mph64%29.98 "Hg10 mi
5:51 PM74 °FSunny.13 mph62%29.98 "Hg10 mi
4:51 PM76 °FSunny.12 mph62%29.98 "Hg9 mi
3:51 PM76 °FSunny.12 mph62%29.99 "Hg10 mi
2:51 PM79 °FSunny.12 mph52%30.01 "Hg10 mi
1:51 PM81 °FSunny.10 mph38%30.02 "Hg10 mi
12:51 PM79 °FSunny.8 mph45%30.03 "Hg10 mi
11:51 AM77 °FSunny.8 mph58%30.04 "Hg10 mi
10:51 AM76 °FSunny.8 mph43%30.04 "Hg10 mi
9:51 AM78 °FSunny.No wind36%30.03 "Hg10 mi
8:51 AM74 °FSunny.3 mph40%30.03 "Hg10 mi
7:51 AM67 °FSunny.No wind66%30.02 "Hg8 mi
6:51 AM61 °FClear.No wind75%30.02 "Hg8 mi
Weather by CustomWeather, © 2014

See weather overviewHow to use our weather pages